Flag for Oman Weather past 2 weeks in Salalah, Oman

Now
77 °F

Warm.


Feels Like: 79 °F
Forecast: 70 / 85 °F
Wind: 3 mph from North

Location: Salalah Airport

Current Time: Oct 20, 2014 at 9:22:33 AM

Latest Report: Oct 20, 2014 at 6:50 AM


Visibility: N/A

Pressure: 29.92 "Hg

Humidity: 69%

Dew point: 66 °F

Location of SalalahLocation

Historic Weather in Salalah — Graph

°F

Salalah temperature yesterday

Maximum temperature yesterday: 91 °F (at 9:50 AM)
Minimum temperature yesterday: 75 °F (at 5:50 AM)
Average temperature yesterday: 84 °F

Past Weeks' High & Low Weather Summary

 TemperatureHumidityPressure
High91 °F (Oct 18, 12:50 PM)89% (Oct 6, 4:50 AM)29.98 "Hg (Oct 6, 4:50 AM)
Low72 °F (Oct 17, 5:50 AM)21% (Oct 18, 1:50 PM)29.77 "Hg (Oct 8, 2:50 PM)
Average82 °F64%29.88 "Hg
* Reported Oct 5 6:50 AM — Oct 20 6:50 AM, Salalah, Weather by CustomWeather, © 2014

Note: Actual official high and low records may vary slightly from our data, if they occured in-between our weather recording intervals... More about our weather records

Advertising

Salalah weather history for previous 24 hours

 ConditionsComfort  
Time TempWeatherWind HumidityBarometerVisibility
6:50 AM
Oct 20
77 °FWarm.3 mph69%29.92 "HgN/A
5:50 AM77 °FWarm.No wind74%29.89 "HgN/A
4:50 AM77 °FWarm.3 mph74%29.86 "HgN/A
3:50 AM77 °FClear.6 mph74%29.86 "Hg10 mi
2:50 AM79 °FWarm.2 mph74%29.86 "HgN/A
1:50 AM79 °FWarm.3 mph74%29.89 "HgN/A
12:50 AM81 °FWarm.2 mph70%29.89 "HgN/A
11:50 PM
Oct 19
81 °FWarm.5 mph70%29.92 "HgN/A
10:50 PM81 °FPassing clouds.3 mph70%29.92 "HgN/A
9:50 PM82 °FPassing clouds.1 mph74%29.92 "HgN/A
8:50 PM82 °FWarm.2 mph74%29.92 "HgN/A
7:50 PM84 °FPassing clouds.3 mph70%29.89 "HgN/A
6:50 PM84 °FWarm.5 mph66%29.86 "HgN/A
5:50 PM84 °FPartly sunny.7 mph62%29.86 "HgN/A
4:50 PM88 °FPassing clouds.8 mph55%29.83 "HgN/A
3:50 PM88 °FPassing clouds.9 mph52%29.83 "HgN/A
2:50 PM90 °FHot.10 mph49%29.83 "HgN/A
1:50 PM91 °FPassing clouds.8 mph44%29.83 "HgN/A
12:50 PM91 °FPassing clouds.8 mph44%29.86 "HgN/A
11:50 AM91 °FHot.6 mph41%29.89 "HgN/A
10:50 AM91 °FPassing clouds.6 mph36%29.92 "HgN/A
9:50 AM91 °FSunny.2 mph30%29.95 "Hg10 mi
Weather by CustomWeather, © 2014

See weather overviewHow to use our weather pages